Volver al catálogo

TITAN 3C TRANSTAGE R/B

ActivoGEO
NORAD 11436·ROCKET BODY·🇺🇸 United States

Lanzado Jun 10, 1979 desde Cape Canaveral Space Force Station

Loading…

TLE

ActualizadoSource: Space-Track

Época: Sep 13, 2026, 23:54 UTC

1 11436U 79053C   26256.99635287 -.00000240  00000-0  00000-0 0  9996
2 11436   6.6659 293.8579 0062800 308.1373  51.1719  0.99445796 27425

Sigue TITAN 3C TRANSTAGE R/B en tiempo real con AllMySat

Download on the App Store